This demonstration page uses our WeatherBlox Daily Observations layout. Learn more.

Left ArrowRight Arrow

Hourly Observations for June 13, 2019

Temp ( °F °C ) Dew Point ( °F °C ) Humidity (%) Winds ( mph kmh ) Pressure ( in mb ) Visibility ( mi km ) Precip ( " mm )
12:56 am 00:56 Clear 54 12.2 47 8.3 77 77 S 6 9 30.10 1019 10 16 0.00 0.00
1:56 am 01:56 Clear 55 12.8 43 6.1 64 64 SW 7 11 30.09 1019 10 16 0.00 0.00
2:56 am 02:56 Clear 52 11.1 45 7.2 77 77 SSW 6 9 30.09 1019 10 16 0.00 0.00
3:56 am 03:56 Clear 50 10 44 6.7 80 80 SSW 5 7 30.09 1019 10 16 0.00 0.00
4:56 am 04:56 Clear 53 11.7 43 6.1 69 69 SSW 7 11 30.07 1018 10 16 0.00 0.00
5:56 am 05:56 Clear 53 11.7 43 6.1 69 69 WSW 8 13 30.08 1019 10 16 0.00 0.00
6:56 am 06:56 Cloudy 55 12.8 44 6.7 67 67 SW 5 7 30.08 1019 10 16 0.00 0.00
7:56 am 07:56 Cloudy 57 13.9 44 6.7 62 62 SW 9 15 30.08 1019 10 16 0.00 0.00
8:56 am 08:56 Mostly Cloudy 62 16.7 46 7.8 56 56 SW 14 22 30.08 1019 10 16 0.00 0.00
9:56 am 09:56 Sunny 68 20 47 8.3 47 47 SW 15 24 30.06 1018 10 16 0.00 0.00
11:56 am 11:56 Partly Cloudy 74 23.3 51 10.6 45 45 SSW 14 22 30.03 1017 10 16 0.00 0.00
12:56 pm 12:56 Sunny 77 25 50 10 39 39 SSW 16 26 30.00 1016 10 16 0.00 0.00
1:56 pm 13:56 Sunny 79 26.1 49 9.4 35 35 S 16 26 29.97 1015 10 16 0.00 0.00
2:56 pm 14:56 Partly Cloudy 80 26.7 50 10 35 35 S 21 33 29.94 1014 10 16 0.00 0.00
3:56 pm 15:56 Sunny 80 26.7 52 11.1 38 38 S 24 39 29.92 1013 10 16 0.00 0.00
4:56 pm 16:56 Sunny 79 26.1 51 10.6 38 38 S 18 30 29.91 1013 10 16 0.00 0.00
5:56 pm 17:56 Sunny 79 26.1 51 10.6 38 38 S 24 39 29.89 1012 10 16 0.00 0.00
6:56 pm 18:56 Sunny 78 25.6 51 10.6 39 39 S 21 33 29.86 1011 10 16 0.00 0.00
7:56 pm 19:56 Sunny 75 23.9 51 10.6 43 43 S 18 30 29.85 1011 10 16 0.00 0.00
8:56 pm 20:56 Sunny 71 21.7 50 10 47 47 SSE 17 28 29.85 1011 10 16 0.00 0.00
9:56 pm 21:56 Clear 68 20 50 10 53 53 SSE 18 30 29.85 1011 10 16 0.00 0.00
10:56 pm 22:56 Clear 67 19.4 50 10 55 55 SSE 16 26 29.85 1011 10 16 0.00 0.00
11:56 pm 23:56 Clear 66 18.9 50 10 56 56 SSE 15 24 29.85 1011 10 16 0.00 0.00

Powered by AerisWeather